sat.trackr.live / text

‹ back to catalog

QIANFAN-66

NORAD 62796 · 2025-016M

PAYLOAD ACTIVE UNKNOWN

§ Identity

Operator
Country
PRC
Launch date
2025-01-23
Launch site
TAISC
Launch vehicle
Mass (kg)
RCS (m²)

External: N2YO · Heavens-Above · Gunter

§ Orbital elements

Epoch: 2026-05-25T03:26:08.497824Z

Period
106.59 min
Inclination
88.9736°
Eccentricity
0.0013073
Mean motion
13.51013449 rev/d
Perigee alt
1,058.8 km
Apogee alt
1,078.3 km
Semi-major
7,446.7 km
B*
1.2462e-4
RAAN
86.0866°
Arg perigee
221.4758°
Mean anomaly
138.5402°
Rev number
6,935

§ Raw data

QIANFAN-661 62796U 25016M   26145.14315391  .00000092  00000+0  12462-3 0  99972 62796  88.9736  86.0866 0013073 221.4758 138.5402 13.51013449 69357

JSON: /api/v1/satellites/62796 · /tle

For live sub-satellite position, see the globe view (requires WebGL).

§ Visibility from observer

Set your observer location to see the next 7 days of passes ≥ 10°. The values pass through the URL so the page stays shareable.

No JS? Fill the form by hand. The geolocation button needs JavaScript.